• Join FlightAware (Why Join?)
  • Login
  • US Flag 
08:51AM EDT


 

Airport Tracker/Info


-or-


 

Live Flight TrackerFlight Track Log ✈ SWA542 ✈ 21-Apr-2013 ✈ KSEA - KOAK

Flight Track Log - Related Links

Times and Time Zones

All times are in EDT time to prevent confusion due to time zone crossing. See the SWA542 flight status page for this flight to view local times or setup timezone preferences in your user account.

Time Position Orientation Groundspeed Altitude Reporting Facility
EDT Latitude Longitude Course Direction KTS MPH feet Rate Location/Type
09:53PM 47.4622 -122.3119 North 145 167 1,100  Level Seattle Center
09:54PM 47.4753 -122.3111 North 140 161 1,800 1,980 Climbing Seattle Center
09:55PM 47.5211 -122.3103 North 178 205 3,900 3,120 Climbing Seattle Center
09:56PM 47.5803 -122.3369 343° North 197 227 8,400 3,420 Climbing Seattle Center
09:57PM 47.6133 -122.4200 301° West 249 287 10,800 2,520 Climbing Seattle Center
09:58PM 47.5786 -122.5272 244° Southwest 319 367 13,500 2,940 Climbing Seattle Center
09:59PM 47.5150 -122.6286 227° Southwest 342 394 16,900 3,120 Climbing Seattle Center
10:00PM 47.4475 -122.7319 226° Southwest 352 405 20,000 2,940 Climbing Seattle Center
10:01PM 47.3778 -122.8375 226° Southwest 360 414 22,900 2,520 Climbing Seattle Center
10:02PM 47.3061 -122.9461 226° Southwest 369 425 25,200 1,980 Climbing Seattle Center
10:03PM 47.2297 -123.0600 225° Southwest 392 451 27,000 1,740 Climbing Seattle Center
10:04PM 47.1319 -123.1631 216° Southwest 431 496 28,800 1,860 Climbing Seattle Center
10:05PM 46.9758 -123.2089 191° South 512 589 30,900 2,160 Climbing Seattle Center
10:06PM 46.8292 -123.1933 176° South 534 615 33,300 2,100 Climbing Seattle Center
10:07PM 46.6858 -123.1764 175° South 523 602 35,200 1,800 Climbing Seattle Center
10:08PM 46.5442 -123.1636 176° South 517 595 37,000 1,560 Climbing Seattle Center
10:09PM 46.3889 -123.1492 176° South 512 589 38,400 960 Climbing Seattle Center
10:10PM 46.2461 -123.1344 176° South 514 592 39,000 240 Climbing Seattle Center
10:11PM 46.1022 -123.1158 175° South 517 595 39,000  Level Seattle Center
10:12PM 45.9606 -123.1019 176° South 511 588 39,000  Level Seattle Center
10:13PM 45.8178 -123.0844 175° South 513 590 39,000 -480 Level Seattle Center
10:14PM 45.6750 -123.0700 176° South 512 589 38,100 -1,020 Descending Seattle Center
10:15PM 45.5344 -123.0539 175° South 504 580 37,000 -600 Descending Seattle Center
10:16PM 45.3956 -123.0386 176° South 499 574 37,000  Level Seattle Center
10:17PM 45.2567 -123.0225 175° South 498 573 37,000  Level Seattle Center
10:18PM 45.1169 -123.0083 176° South 500 575 37,000  Level Seattle Center
10:19PM 44.9775 -122.9939 176° South 500 575 37,000  Level Seattle Center
10:20PM 44.8397 -122.9775 175° South 494 568 37,000  Level Seattle Center
10:21PM 44.7039 -122.9636 176° South 486 559 37,000  Level Seattle Center
10:22PM 44.5669 -122.9503 176° South 490 564 37,000  Level Seattle Center
10:23PM 44.4308 -122.9389 177° South 489 563 37,000  Level Seattle Center
10:24PM 44.2761 -122.9356 179° South 486 559 37,000  Level Seattle Center
10:25PM 44.1394 -122.9303 178° South 485 558 37,000  Level Seattle Center
10:26PM 44.0050 -122.9269 179° South 479 551 37,000  Level Seattle Center
10:27PM 43.8722 -122.9239 179° South 476 548 37,000  Level Seattle Center
10:28PM 43.7397 -122.9192 179° South 473 544 37,000  Level Seattle Center
10:29PM 43.6069 -122.9150 179° South 476 548 37,000  Level Seattle Center
10:30PM 43.4725 -122.9108 179° South 480 552 37,000  Level Seattle Center
10:31PM 43.3386 -122.9075 179° South 479 551 37,000  Level Seattle Center
10:32PM 43.2064 -122.9022 178° South 476 548 37,000  Level Seattle Center
10:33PM 43.0736 -122.8981 179° South 475 547 37,000  Level Seattle Center
10:34PM 42.9411 -122.8950 179° South 475 547 37,000  Level Seattle Center
10:35PM 42.8086 -122.8914 179° South 475 547 37,000  Level Seattle Center
10:36PM 42.6689 -122.8856 178° South 474 545 37,000  Level Seattle Center
10:37PM 42.5347 -122.8825 179° South 480 552 37,000  Level Seattle Center
10:38PM 42.4003 -122.8794 179° South 483 556 37,000  Level Seattle Center
10:39PM 42.2661 -122.8764 179° South 484 557 37,000  Level Seattle Center
10:40PM 42.1317 -122.8725 179° South 486 559 37,000  Level Seattle Center
10:42PM 41.9986 -122.8681 179° South 481 554 37,000  Level Seattle Center
10:43PM 41.8656 -122.8658 179° South 479 551 37,000  Level Seattle Center
10:44PM 41.7325 -122.8628 179° South 481 554 37,000  Level Seattle Center
10:45PM 41.5981 -122.8594 179° South 484 557 37,000  Level Seattle Center
10:46PM 41.4639 -122.8556 179° South 485 558 37,000  Level Seattle Center
10:47PM 41.3233 -122.8531 179° South 485 558 37,000  Level Seattle Center
10:48PM 41.1886 -122.8442 177° South 484 557 37,000  Level Seattle Center
10:48PM 41.1086 -122.8383 177° South 485 558 37,000  Level Oakland Center
10:49PM 40.9742 -122.8322 178° South 486 559 37,000  Level Oakland Center
10:50PM 40.8400 -122.8239 177° South 485 558 37,000  Level Oakland Center
10:51PM 40.7056 -122.8142 177° South 486 559 37,000  Level Oakland Center
10:52PM 40.5719 -122.8078 178° South 483 556 37,000  Level Oakland Center
10:53PM 40.4406 -122.8000 177° South 477 549 37,000  Level Oakland Center
10:54PM 40.3097 -122.7931 178° South 475 547 37,000  Level Oakland Center
10:55PM 40.1800 -122.7844 177° South 472 543 37,000  Level Oakland Center
10:56PM 40.0500 -122.7783 178° South 472 543 37,000  Level Oakland Center
10:57PM 39.8953 -122.7692 177° South 470 541 37,000 -180 Level Oakland Center
10:58PM 39.7658 -122.7614 177° South 468 539 36,700 -660 Descending Oakland Center
10:59PM 39.6367 -122.7539 177° South 465 535 35,700 -960 Descending Oakland Center
11:00PM 39.5067 -122.7472 178° South 467 537 34,800 -1,080 Descending Oakland Center
11:01PM 39.3764 -122.7358 176° South 469 540 33,600 -2,220 Descending Oakland Center
11:02PM 39.2469 -122.7231 176° South 467 537 30,400 -3,000 Descending Oakland Center
11:03PM 39.1200 -122.7058 174° South 464 534 27,500 -2,760 Descending Oakland Center
11:04PM 38.9936 -122.6933 176° South 458 527 24,900 -2,760 Descending Oakland Center
11:05PM 38.8550 -122.6817 176° South 437 503 21,900 -2,700 Descending Oakland Center
11:06PM 38.7392 -122.6697 175° South 419 482 19,500 -2,400 Descending Oakland Center
11:07PM 38.6244 -122.6597 176° South 411 473 17,100 -2,400 Descending Oakland Center
11:08PM 38.5169 -122.6489 175° South 389 448 14,700 -2,340 Descending Oakland Center
11:09PM 38.4117 -122.6272 171° South 382 440 12,400 -2,040 Descending Oakland Center
11:10PM 38.3114 -122.6094 172° South 365 420 10,600 -1,200 Descending Oakland Center
11:11PM 38.2219 -122.5922 171° South 325 374 10,000 -900 Descending Oakland Center
11:12PM 38.1428 -122.5778 172° South 292 336 8,800 -1,380 Descending Oakland Center
11:13PM 38.0625 -122.5625 171° South 289 333 7,300 -960 Descending Oakland Center
11:14PM 38.0086 -122.4933 135° Southeast 281 323 6,900 -480 Descending Oakland Center
11:15PM 37.9619 -122.4136 127° Southeast 278 320 6,400 -840 Descending Oakland Center
11:16PM 37.9136 -122.3356 128° Southeast 279 321 5,200 -780 Descending Oakland Center
11:17PM 37.8647 -122.2594 129° Southeast 278 320 4,900 -180 Descending Oakland Center
11:19PM 37.8178 -122.1864 129° Southeast 272 313 4,900 -480 Level Oakland Center
11:20PM 37.7675 -122.1303 139° Southeast 247 284 4,000 -540 Descending Oakland Center
11:21PM 37.7200 -122.0756 138° Southeast 237 273 3,900 -300 Descending Oakland Center
11:22PM 37.6594 -122.0500 162° South 225 259 3,500 -600 Descending Oakland Center
11:23PM 37.6328 -122.1047 238° Southwest 201 231 2,800 -1,140 Descending Oakland Center
11:24PM 37.6542 -122.1442 304° West 158 182 1,300 -1,080 Descending Oakland Center
11:25PM 37.6783 -122.1794 311° West 142 163 700 2,760 Descending Oakland Center
11:26PM 37.7019 -122.2142 311° West 135 155 7,000 6,180 Climbing Oakland Center